Weather History for Jefferson, GA

Change the Weather History Date:

Friday, February 22, 2013

  Actual Average (KGVL) Record (KGVL)
Temperature  
Mean Temperature 42 °F 47 °F  
Max Temperature 46 °F 57 °F 73 °F (1981)
Min Temperature 37 °F 37 °F 7 °F (1963)
Degree Days  
Heating Degree Days 24 18  
Month to date heating degree days 444  
Since 1 July heating degree days 2362  
Moisture  
Dew Point 37 °F    
Average Humidity 91    
Maximum Humidity 100    
Minimum Humidity 50    
Precipitation  
Precipitation 0.00 in 0.18 in 2.96 in (1962)
Month to date precipitation 3.67  
Year to date precipitation 8.70  
Snow  
Snow 0.00 in - - ()
Month to date snowfall  
Since 1 July snowfall  
Snow Depth -    
Sea Level Pressure  
Sea Level Pressure 30.14 in    
Wind  
Wind Speed 5 mph (ENE)    
Max Wind Speed 9 mph    
Max Gust Speed 17 mph    
Visibility 3 miles    
Events Rain , Thunderstorm    
T = Trace of Precipitation, MM = Missing Value Source: NWS Daily Summary

Daily Weather History Graph

Daily Weather History Graph

Search for Another Location

Airport:

Trip Planner

Search our weather history database for the weather conditions in past years. The results will help you decide how hot, cold, wet, or windy it might be!

Date:

Astronomy

Feb. 22, 2013 Rise Set
Actual Time 7:11 AM EST 6:24 PM EST
Civil Twilight 6:45 AM EST 6:50 PM EST
Nautical Twilight 6:16 AM EST 7:19 PM EST
Astronomical Twilight 5:47 AM EST 7:48 PM EST
Moon 3:40 PM EST (2/22) 4:50 AM EST (2/22)
Length of Visible Light 12h 04m
Length of Day
11h 13m
Waxing Gibbous, 90% of the Moon is Illuminated
Feb 22
Waxing Gibbous
Feb 25
Full
Mar 4
Last Quarter
Mar 11
New
Mar 19
First Quarter

Hourly Weather History & Observations

Time (EST) Temp. Windchill Dew Point Humidity Pressure Visibility Wind Dir Wind Speed Gust Speed Precip Events Conditions
12:15 AM 46.4 °F 44.3 °F 28.4 °F 50% 30.16 in 10.0 mi North 4.6 mph - N/A Rain Light Rain
12:35 AM 44.6 °F 43.1 °F 32.0 °F 61% 30.16 in 10.0 mi NNE 3.5 mph - N/A Rain Rain
12:55 AM 42.8 °F 40.1 °F 33.8 °F 70% 30.18 in 7.0 mi North 4.6 mph - N/A Rain , Thunderstorm Thunderstorms and Rain
1:15 AM 42.8 °F 38.6 °F 37.4 °F 81% 30.19 in 3.0 mi NE 6.9 mph - N/A Rain Heavy Rain
1:35 AM 42.8 °F 41.1 °F 39.2 °F 87% 30.18 in 4.0 mi ENE 3.5 mph - N/A Rain Rain
1:55 AM 42.8 °F 38.0 °F 39.2 °F 87% 30.16 in 3.0 mi East 8.1 mph - N/A   Overcast
2:15 AM 42.8 °F 40.1 °F 39.2 °F 87% 30.16 in 7.0 mi ENE 4.6 mph 17.3 mph N/A Rain Light Rain
2:35 AM 42.8 °F 39.3 °F 39.2 °F 87% 30.16 in 4.0 mi ENE 5.8 mph - N/A Rain Rain
2:55 AM 42.8 °F 39.3 °F 39.2 °F 87% 30.18 in 7.0 mi ENE 5.8 mph - N/A Rain Rain
3:15 AM 41.0 °F 38.0 °F 39.2 °F 93% 30.15 in 7.0 mi ENE 4.6 mph - N/A Rain Light Rain
3:35 AM 41.0 °F 38.0 °F 39.2 °F 93% 30.17 in 5.0 mi East 4.6 mph - N/A Rain Heavy Rain
3:55 AM 41.0 °F 35.8 °F 39.2 °F 93% 30.14 in 2.5 mi East 8.1 mph - N/A Thunderstorm Overcast
4:15 AM 41.0 °F 36.4 °F 39.2 °F 93% 30.14 in 2.5 mi East 6.9 mph - N/A   Unknown
4:35 AM 41.0 °F 36.4 °F 39.2 °F 93% 30.13 in 4.0 mi East 6.9 mph - N/A Rain Rain
4:55 AM 41.0 °F 37.1 °F 39.2 °F 93% 30.13 in 4.0 mi ENE 5.8 mph - N/A Rain Rain
5:15 AM 41.0 °F 36.4 °F 39.2 °F 93% 30.12 in 4.0 mi ENE 6.9 mph - N/A Rain Rain
5:35 AM 41.0 °F 35.8 °F 39.2 °F 93% 30.11 in 4.0 mi East 8.1 mph 16.1 mph N/A Rain Rain
5:55 AM 41.0 °F 37.1 °F 39.2 °F 93% 30.12 in 4.0 mi ENE 5.8 mph - N/A Rain Light Rain
6:15 AM 41.0 °F 38.0 °F 37.4 °F 87% 30.15 in 4.0 mi NNE 4.6 mph - N/A Rain Rain
6:35 AM 41.0 °F 39.0 °F 37.4 °F 87% 30.18 in 4.0 mi ENE 3.5 mph - N/A Rain Rain
7:15 AM 41.0 °F 37.1 °F 37.4 °F 87% 30.17 in 5.0 mi ENE 5.8 mph - N/A   Drizzle
7:35 AM 39.2 °F 34.2 °F 37.4 °F 93% 30.17 in 5.0 mi ENE 6.9 mph - N/A   Drizzle
7:55 AM 39.2 °F 35.0 °F 37.4 °F 93% 30.17 in 4.0 mi ENE 5.8 mph - N/A   Light Drizzle
8:15 AM 39.2 °F 35.0 °F 37.4 °F 93% 30.17 in 5.0 mi ENE 5.8 mph - N/A Rain Light Rain
8:35 AM 39.2 °F 33.0 °F 35.6 °F 87% 30.18 in 7.0 mi ENE 9.2 mph - N/A   Overcast
8:55 AM 37.4 °F 32.1 °F 35.6 °F 93% 30.20 in 5.0 mi ENE 6.9 mph - N/A   Overcast
9:15 AM 37.4 °F 32.1 °F 35.6 °F 93% 30.19 in 5.0 mi ENE 6.9 mph - N/A   Overcast
9:35 AM 37.4 °F 31.4 °F 35.6 °F 93% 30.19 in 4.0 mi ENE 8.1 mph - N/A   Overcast
9:55 AM 37.4 °F 32.1 °F 35.6 °F 93% 30.18 in 3.0 mi ENE 6.9 mph - N/A   Light Drizzle
10:15 AM 37.4 °F 31.4 °F 35.6 °F 93% 30.18 in 3.0 mi ENE 8.1 mph - N/A   Overcast
10:35 AM 37.4 °F 33.8 °F 35.6 °F 93% 30.19 in 2.5 mi ENE 4.6 mph - N/A   Overcast
10:55 AM 37.4 °F 32.1 °F 37.4 °F 100% 30.17 in 3.0 mi ENE 6.9 mph - N/A   Overcast
11:15 AM 37.4 °F 34.9 °F 37.4 °F 100% 30.18 in 2.5 mi ENE 3.5 mph - N/A   Overcast
11:35 AM 37.4 °F 31.4 °F 37.4 °F 100% 30.17 in 2.0 mi ENE 8.1 mph - N/A   Overcast
11:55 AM 37.4 °F 33.8 °F 37.4 °F 100% 30.18 in 2.0 mi East 4.6 mph - N/A   Overcast
12:15 PM 37.4 °F 32.1 °F 37.4 °F 100% 30.18 in 1.8 mi ENE 6.9 mph - N/A   Overcast
12:35 PM 37.4 °F 33.8 °F 37.4 °F 100% 30.18 in 1.5 mi ENE 4.6 mph - N/A   Overcast
12:55 PM 39.2 °F 35.9 °F 37.4 °F 93% 30.17 in 1.8 mi ENE 4.6 mph - N/A   Overcast
1:15 PM 39.2 °F - 37.4 °F 93% 30.16 in 1.5 mi Calm Calm - N/A   Overcast
1:35 PM 39.2 °F 34.2 °F 37.4 °F 93% 30.15 in 1.8 mi ENE 6.9 mph - N/A   Overcast
1:55 PM 39.2 °F - 37.4 °F 93% 30.14 in 2.0 mi Calm Calm - N/A   Overcast
2:15 PM 39.2 °F 37.0 °F 37.4 °F 93% 30.13 in 2.0 mi ENE 3.5 mph - N/A   Overcast
2:35 PM 39.2 °F 35.0 °F 37.4 °F 93% 30.12 in 2.5 mi ENE 5.8 mph - N/A   Overcast
2:55 PM 39.2 °F 35.9 °F 37.4 °F 93% 30.11 in 3.0 mi ENE 4.6 mph - N/A   Overcast
3:15 PM 41.0 °F - 37.4 °F 87% 30.11 in 3.0 mi Calm Calm - N/A   Overcast
3:35 PM 39.2 °F - 37.4 °F 93% 30.11 in 3.0 mi Calm Calm - N/A   Overcast
3:55 PM 39.2 °F 35.0 °F 37.4 °F 93% 30.10 in 2.0 mi ENE 5.8 mph - N/A   Overcast
4:15 PM 41.0 °F 39.0 °F 37.4 °F 87% 30.09 in 2.5 mi ENE 3.5 mph - N/A   Overcast
4:35 PM 41.0 °F 39.0 °F 37.4 °F 87% 30.10 in 3.0 mi East 3.5 mph - N/A   Overcast
4:55 PM 41.0 °F 39.0 °F 37.4 °F 87% 30.11 in 3.0 mi East 3.5 mph - N/A   Overcast
5:15 PM 41.0 °F 38.0 °F 37.4 °F 87% 30.09 in 1.5 mi ENE 4.6 mph - N/A   Drizzle
5:35 PM 41.0 °F 36.4 °F 37.4 °F 87% 30.08 in 1.8 mi East 6.9 mph - N/A   Overcast
5:55 PM 41.0 °F 39.0 °F 39.2 °F 93% 30.07 in 1.8 mi East 3.5 mph - N/A   Overcast
6:15 PM 41.0 °F 39.0 °F 39.2 °F 93% 30.09 in 3.0 mi ENE 3.5 mph - N/A   Overcast
6:35 PM 39.2 °F 37.0 °F 39.2 °F 100% 30.10 in 4.0 mi ENE 3.5 mph - N/A   Overcast
6:55 PM 39.2 °F 37.0 °F 37.4 °F 93% 30.11 in 2.0 mi East 3.5 mph - N/A   Overcast
7:15 PM 39.2 °F 35.0 °F 37.4 °F 93% 30.10 in 2.0 mi ENE 5.8 mph - N/A   Overcast
7:35 PM 39.2 °F 37.0 °F 37.4 °F 93% 30.11 in 2.0 mi East 3.5 mph - N/A   Overcast
7:55 PM 39.2 °F - 37.4 °F 93% 30.13 in 2.0 mi Calm Calm - N/A   Overcast
8:15 PM 39.2 °F - 37.4 °F 93% 30.14 in 2.5 mi Calm Calm - N/A   Overcast
8:35 PM 39.2 °F - 37.4 °F 93% 30.12 in 2.5 mi Calm Calm - N/A   Overcast
8:55 PM 39.2 °F 35.0 °F 37.4 °F 93% 30.10 in 3.0 mi East 5.8 mph - N/A   Overcast
9:15 PM 39.2 °F 35.0 °F 37.4 °F 93% 30.10 in 2.5 mi East 5.8 mph - N/A   Overcast
9:35 PM 39.2 °F 34.2 °F 37.4 °F 93% 30.07 in 2.5 mi East 6.9 mph - N/A   Overcast
9:55 PM 39.2 °F 35.0 °F 37.4 °F 93% 30.06 in 2.5 mi East 5.8 mph - N/A   Overcast
10:15 PM 39.2 °F - 37.4 °F 93% 30.08 in 2.5 mi Calm Calm - N/A   Overcast
10:35 PM 39.2 °F - 37.4 °F 93% 30.11 in 2.5 mi Calm Calm - N/A Rain Light Rain
10:55 PM 39.2 °F - 37.4 °F 93% 30.13 in 2.5 mi Calm Calm - N/A Rain Rain
11:15 PM 39.2 °F - 37.4 °F 93% 30.11 in 2.5 mi Calm Calm - N/A Rain Light Rain
11:35 PM 39.2 °F - 37.4 °F 93% 30.10 in 2.5 mi Calm Calm - N/A Rain Light Rain
11:55 PM 39.2 °F 35.9 °F 37.4 °F 93% 30.07 in 2.5 mi East 4.6 mph - N/A Rain Light Rain